This demonstration page uses our WeatherBlox Daily Observations layout. Learn more.

38.88101, -77.10428

Hourly Observations for December 31, 2018

Temp ( °F °C ) Dew Point ( °F °C ) Humidity (%) Winds ( mph kmh ) Pressure ( in mb ) Visibility ( mi km ) Precip ( " mm )
12:52 am 00:52 Mostly Cloudy 39 3.9 34 1.1 82 82 Calm 30.28 1025 10 16.0934 0 0
1:52 am 01:52 Mostly Cloudy 40 4.4 33 0.6 77 77 Calm 30.29 1026 10 16.0934 0 0
2:52 am 02:52 Mostly Cloudy 39 3.9 33 0.6 79 79 Calm 30.3 1026 10 16.0934 0 0
3:52 am 03:52 Cloudy 39 3.9 34 1.1 82 82 NE 5 7 30.28 1025 10 16.0934 0 0
3:59 am 03:59 Cloudy 39 3.9 34 1.1 82 82 NE 7 11 30.3 1026 10 16.0934 0 0
4:52 am 04:52 Cloudy 40 4.4 36 2.2 86 86 NE 5 7 30.27 1025 10 16.0934 0 0
5:52 am 05:52 Cloudy 41 5 36 2.2 82 82 NNE 3 6 30.29 1026 10 16.0934 0 0
6:52 am 06:52 Cloudy 42 5.6 38 3.3 85 85 NNE 5 7 30.28 1025 10 16.0934 0 0
7:30 am 07:30 Cloudy 43 6.1 39 3.9 86 86 ENE 6 9 30.27 1025 10 16.0934 0 0
7:52 am 07:52 Cloudy 44 6.7 39 3.9 83 83 NE 3 6 30.3 1026 10 16.0934 0 0
8:52 am 08:52 Cloudy 46 7.8 40 4.4 79 79 SSE 3 6 30.32 1027 10 16.0934 0 0
9:52 am 09:52 Cloudy 46 7.8 40 4.4 79 79 S 5 7 30.3 1026 10 16.0934 0 0.0254
10:15 am 10:15 Cloudy 47 8.3 41 5 80 80 Calm 30.27 1025 10 16.0934 0 0
10:52 am 10:52 Cloudy 48 8.9 41 5 77 77 Calm 30.26 1025 10 16.0934 0 0
11:43 am 11:43 Cloudy with Rain 48 8.9 42 5.6 80 80 S 5 7 30.21 1023 4 6.43736 0.01 0.254
11:52 am 11:52 Cloudy with Rain 47 8.3 42 5.6 83 83 Calm 30.21 1023 3 4.82802 0.02 0.508
12:45 pm 12:45 Cloudy with Rain 48 8.9 44 6.7 86 86 ESE 7 11 30.18 1022 3 4.82802 0.09 2.286
12:52 pm 12:52 Cloudy with Rain 47 8.3 44 6.7 90 90 Calm 30.17 1022 2.5 4.02335 0.12 3.048
1:10 pm 13:10 Cloudy with Rain 47 8.3 44 6.7 90 90 VRB 3 6 30.18 1022 2.5 4.02335 0.03 0.762
1:17 pm 13:17 Cloudy with Heavy Rain 47 8.3 44 6.7 90 90 ESE 5 7 30.18 1022 2 3.21868 0.05 1.27
1:44 pm 13:44 Cloudy with Rain 47 8.3 44 6.7 90 90 Calm 30.18 1022 3 4.82802 0.12 3.048
1:52 pm 13:52 Cloudy with Rain 47 8.3 44 6.7 90 90 ESE 6 9 30.15 1021 3 4.82802 0.14 3.556
2:00 pm 14:00 Cloudy with Rain 47 8.3 44 6.7 90 90 ESE 5 7 30.15 1021 2.5 4.02335 0.01 0.254
2:17 pm 14:17 Cloudy with Light Rain 47 8.3 44 6.7 90 90 ESE 6 9 30.15 1021 3 4.82802 0.04 1.016
2:50 pm 14:50 Cloudy with Rain 46 8 45 7 93 93 ESE 5 7 30.12 1020 2 3.21868 0.1 2.54
2:52 pm 14:52 Cloudy with Rain 47 8.3 44 6.7 90 90 SE 3 6 30.13 1020 2 3.21868 0.11 2.794
3:04 pm 15:04 Cloudy with Light Rain 47 8.3 44 6.7 90 90 SE 5 7 30.12 1020 3 4.82802 0.02 0.508
3:25 pm 15:25 Cloudy with Light Rain 47 8.3 45 7.2 93 93 E 5 7 30.12 1020 2.5 4.02335 0.02 0.508
3:41 pm 15:41 Cloudy with Light Drizzle 47 8.3 45 7.2 93 93 E 5 7 30.09 1019 2.5 4.02335 0.02 0.508
3:50 pm 15:50 Cloudy with Light Rain 46 8 45 7 93 93 Calm 30.12 1020 1.5 2.41401 0.03 0.762
3:52 pm 15:52 Cloudy with Light Rain 47 8.3 45 7.2 93 93 E 3 6 30.1 1019 1.5 2.41401 0.03 0.762
4:37 pm 16:37 Cloudy with Light Drizzle 47 8.3 45 7.2 93 93 ESE 5 7 30.06 1018 2 3.21868 0.01 0.254
4:52 pm 16:52 Cloudy with Light Drizzle 47 8.3 45 7.2 93 93 ESE 3 6 30.06 1018 4 6.43736 0.01 0.254
5:52 pm 17:52 Cloudy with Light Drizzle 48 8.9 45 7.2 89 89 Calm 30.05 1018 3 4.82802 0.01 0.254
5:55 pm 17:55 Cloudy with Light Rain 48 8.9 45 7.2 89 89 Calm 30.03 1017 2.5 4.02335 0 0.0254
6:37 pm 18:37 Cloudy with Light Rain 47 8.3 45 7.2 93 93 S 3 6 30.03 1017 3 4.82802 0.01 0.254
6:52 pm 18:52 Cloudy with Light Rain 48 8.9 46 7.8 93 93 Calm 30.02 1017 4 6.43736 0.02 0.508
7:11 pm 19:11 Cloudy with Light Drizzle 48 8.9 46 7.8 93 93 Calm 30 1016 2.5 4.02335 0 0.0254
7:17 pm 19:17 Cloudy with Light Drizzle 48 8.9 46 7.8 93 93 Calm 30 1016 1.5 2.41401 0 0.0254
7:22 pm 19:22 Cloudy with Light Drizzle 47 8.3 44 6.7 90 90 Calm 30 1016 0.75 1.207005 0 0.0254
7:47 pm 19:47 Cloudy with Light Drizzle 46 8 45 7 93 93 Calm 30 1016 1 1.60934 0 0.0254
7:52 pm 19:52 Cloudy with Light Drizzle 47 8.3 45 7.2 93 93 Calm 29.98 1015 1 1.60934 0 0.0254
8:14 pm 20:14 Cloudy with Light Drizzle 48 8.9 46 7.8 93 93 Calm 29.97 1015 2 3.21868 0.01 0.254
8:19 pm 20:19 Cloudy with Light Drizzle 48 8.9 46 7.8 93 93 S 3 6 29.97 1015 1.75 2.816345 0.01 0.254
8:32 pm 20:32 Cloudy with Light Drizzle 47 8.3 46 7.8 97 97 S 5 7 29.94 1014 0.75 1.207005 0.01 0.254
8:49 pm 20:49 Cloudy with Light Drizzle 48 9 46 8 94 94 SSW 5 7 29.94 1014 1 1.60934 0.01 0.254
8:52 pm 20:52 Cloudy with Light Drizzle 48 8.9 46 7.8 93 93 S 6 9 29.93 1014 1.25 2.011675 0.01 0.254
9:10 pm 21:10 Cloudy with Light Drizzle 49 9.4 47 8.3 93 93 SSW 3 6 29.94 1014 2 3.21868 0 0.0254
9:13 pm 21:13 Cloudy with Light Drizzle 49 9.4 47 8.3 93 93 S 6 9 29.91 1013 1.75 2.816345 0 0.0254
9:40 pm 21:40 Cloudy with Light Drizzle 50 10 47 8.3 89 89 SW 5 7 29.91 1013 2.5 4.02335 0 0.0254
9:49 pm 21:49 Cloudy with Light Rain 50 10 48 9 94 94 SSW 6 9 29.91 1013 3 4.82802 0 0.0254
9:52 pm 21:52 Cloudy with Light Rain 50 10 48 8.9 93 93 SW 7 11 29.91 1013 3 4.82802 0 0.0254
10:03 pm 22:03 Cloudy with Mist and Fog 50 10 48 8.9 93 93 SSW 6 9 29.91 1013 2.5 4.02335 0 0.0254
10:24 pm 22:24 Cloudy with Light Drizzle 50 10 48 8.9 93 93 S 5 7 29.88 1012 1.75 2.816345 0 0.0254
10:52 pm 22:52 Mostly Cloudy with Light Drizzle 50 10 48 8.9 93 93 SW 5 7 29.87 1012 1 1.60934 0.01 0.254
11:52 pm 23:52 Mostly Cloudy with Light Drizzle 51 10.6 49 9.4 92 92 SSW 6 9 29.84 1011 1 1.60934 0 0.0254
11:56 pm 23:56 Mostly Cloudy with Light Drizzle 51 10.6 49 9.4 92 92 SSW 6 9 29.83 1010 0.75 1.207005 0 0.0254

Powered by AerisWeather